TimeCDT,TemperatureF,Dew PointF,Humidity,Sea Level PressureIn,VisibilityMPH,Wind Direction,Wind SpeedMPH,Gust SpeedMPH,PrecipitationIn,Events,Conditions,WindDirDegrees,DateUTC
12:15 AM,23.0,23.0,100,30.01,10.0,Calm,Calm,-,N/A,,Clear,0,2012-11-02 05:15:00
12:35 AM,26.6,26.6,100,30.01,10.0,NW,4.6,-,N/A,,Clear,320,2012-11-02 05:35:00
12:55 AM,23.0,23.0,100,30.02,10.0,Calm,Calm,-,N/A,,Clear,0,2012-11-02 05:55:00
1:15 AM,23.0,23.0,100,30.02,10.0,Calm,Calm,-,N/A,,Clear,0,2012-11-02 06:15:00
1:35 AM,21.2,21.2,100,30.02,10.0,Calm,Calm,-,N/A,,Clear,0,2012-11-02 06:35:00
1:55 AM,21.2,21.2,100,30.03,10.0,Calm,Calm,-,N/A,,Clear,0,2012-11-02 06:55:00
2:15 AM,21.2,21.2,100,30.03,10.0,Calm,Calm,-,N/A,,Clear,0,2012-11-02 07:15:00
2:55 AM,21.2,21.2,100,30.04,10.0,Calm,Calm,-,N/A,,Clear,0,2012-11-02 07:55:00
3:15 AM,19.4,19.4,100,30.04,10.0,Calm,Calm,-,N/A,,Clear,0,2012-11-02 08:15:00
3:35 AM,19.4,19.4,100,30.05,10.0,Calm,Calm,-,N/A,,Clear,0,2012-11-02 08:35:00
3:55 AM,19.4,19.4,100,30.05,10.0,Calm,Calm,-,N/A,,Clear,0,2012-11-02 08:55:00
4:15 AM,19.4,19.4,100,30.04,10.0,Calm,Calm,-,N/A,,Clear,0,2012-11-02 09:15:00
4:35 AM,19.4,19.4,100,30.05,10.0,Calm,Calm,-,N/A,,Clear,0,2012-11-02 09:35:00
4:55 AM,19.4,19.4,100,30.05,10.0,Calm,Calm,-,N/A,,Clear,0,2012-11-02 09:55:00
5:15 AM,19.4,19.4,100,30.05,10.0,Calm,Calm,-,N/A,,Clear,0,2012-11-02 10:15:00
5:35 AM,17.6,17.6,100,30.06,10.0,Calm,Calm,-,N/A,,Clear,0,2012-11-02 10:35:00
5:55 AM,17.6,17.6,100,30.06,10.0,Calm,Calm,-,N/A,,Clear,0,2012-11-02 10:55:00
6:35 AM,17.6,17.6,100,30.08,10.0,Calm,Calm,-,N/A,,Clear,0,2012-11-02 11:35:00
6:55 AM,15.8,15.8,100,30.09,10.0,Calm,Calm,-,N/A,,Clear,0,2012-11-02 11:55:00
7:15 AM,15.8,15.8,100,30.09,10.0,Calm,Calm,-,N/A,,Clear,0,2012-11-02 12:15:00
7:35 AM,15.8,14.0,93,30.09,10.0,Calm,Calm,-,N/A,,Clear,0,2012-11-02 12:35:00
7:55 AM,15.8,14.0,93,30.10,10.0,Calm,Calm,-,N/A,,Clear,0,2012-11-02 12:55:00
8:15 AM,17.6,17.6,100,30.09,10.0,Calm,Calm,-,N/A,,Clear,0,2012-11-02 13:15:00
8:55 AM,24.8,24.8,100,30.11,10.0,Calm,Calm,-,N/A,,Clear,0,2012-11-02 13:55:00
9:35 AM,32.0,28.4,87,30.12,10.0,Calm,Calm,-,N/A,,Clear,0,2012-11-02 14:35:00
9:55 AM,33.8,28.4,81,30.12,10.0,NNE,3.5,-,N/A,,Clear,20,2012-11-02 14:55:00
10:15 AM,35.6,26.6,70,30.13,10.0,North,4.6,-,N/A,,Clear,360,2012-11-02 15:15:00
10:35 AM,35.6,24.8,65,30.13,10.0,ENE,3.5,-,N/A,,Clear,60,2012-11-02 15:35:00
10:55 AM,37.4,24.8,60,30.13,10.0,ENE,5.8,-,N/A,,Clear,60,2012-11-02 15:55:00
11:15 AM,37.4,24.8,60,30.13,10.0,Calm,Calm,-,N/A,,Clear,0,2012-11-02 16:15:00
11:35 AM,37.4,24.8,60,30.13,10.0,NNE,3.5,-,N/A,,Clear,20,2012-11-02 16:35:00
11:55 AM,37.4,23.0,56,30.13,10.0,Calm,Calm,-,N/A,,Clear,0,2012-11-02 16:55:00
12:15 PM,41.0,23.0,49,30.13,10.0,Calm,Calm,-,N/A,,Clear,0,2012-11-02 17:15:00
12:35 PM,41.0,23.0,49,30.13,10.0,NNW,3.5,-,N/A,,Clear,330,2012-11-02 17:35:00
12:55 PM,41.0,23.0,49,30.12,10.0,NNW,4.6,-,N/A,,Clear,330,2012-11-02 17:55:00
1:15 PM,41.0,23.0,49,30.11,10.0,NE,3.5,-,N/A,,Clear,40,2012-11-02 18:15:00
1:35 PM,42.8,21.2,42,30.11,10.0,NW,4.6,-,N/A,,Clear,320,2012-11-02 18:35:00
1:55 PM,42.8,21.2,42,30.11,10.0,Calm,Calm,-,N/A,,Clear,0,2012-11-02 18:55:00
2:15 PM,42.8,21.2,42,30.11,10.0,North,3.5,-,N/A,,Clear,350,2012-11-02 19:15:00
2:35 PM,44.6,21.2,39,30.09,10.0,Calm,Calm,-,N/A,,Clear,0,2012-11-02 19:35:00
2:55 PM,44.6,21.2,39,30.09,10.0,Calm,Calm,-,N/A,,Clear,0,2012-11-02 19:55:00
3:15 PM,44.6,21.2,39,30.08,10.0,Calm,Calm,-,N/A,,Clear,0,2012-11-02 20:15:00
3:55 PM,46.4,21.2,37,30.09,10.0,Calm,Calm,-,N/A,,Clear,0,2012-11-02 20:55:00
4:15 PM,46.4,21.2,37,30.09,10.0,WNW,3.5,-,N/A,,Clear,300,2012-11-02 21:15:00
4:35 PM,46.4,19.4,34,30.09,10.0,NNW,4.6,-,N/A,,Clear,330,2012-11-02 21:35:00
4:55 PM,46.4,19.4,34,30.09,10.0,Calm,Calm,-,N/A,,Clear,0,2012-11-02 21:55:00
5:15 PM,42.8,19.4,39,30.09,10.0,NE,3.5,-,N/A,,Clear,40,2012-11-02 22:15:00
5:35 PM,42.8,21.2,42,30.09,10.0,NE,5.8,-,N/A,,Clear,50,2012-11-02 22:35:00
5:55 PM,39.2,23.0,52,30.09,10.0,NE,5.8,-,N/A,,Clear,50,2012-11-02 22:55:00
6:15 PM,37.4,23.0,56,30.09,10.0,NE,5.8,-,N/A,,Clear,50,2012-11-02 23:15:00
6:35 PM,37.4,24.8,60,30.09,10.0,NE,6.9,-,N/A,,Clear,50,2012-11-02 23:35:00
6:55 PM,37.4,24.8,60,30.11,10.0,NE,6.9,-,N/A,,Clear,50,2012-11-02 23:55:00
7:55 PM,37.4,24.8,60,30.12,10.0,Calm,Calm,-,N/A,,Clear,0,2012-11-03 00:55:00
8:15 PM,35.6,24.8,65,30.13,10.0,Calm,Calm,-,N/A,,Scattered Clouds,0,2012-11-03 01:15:00
8:35 PM,35.6,24.8,65,30.13,10.0,Calm,Calm,-,N/A,,Mostly Cloudy,0,2012-11-03 01:35:00
8:55 PM,35.6,26.6,70,30.13,10.0,Calm,Calm,-,N/A,,Overcast,0,2012-11-03 01:55:00
9:15 PM,35.6,26.6,70,30.13,10.0,Calm,Calm,-,N/A,,Overcast,0,2012-11-03 02:15:00
9:35 PM,33.8,26.6,75,30.13,10.0,NE,4.6,-,N/A,,Scattered Clouds,40,2012-11-03 02:35:00
9:55 PM,33.8,26.6,75,30.14,10.0,Calm,Calm,-,N/A,,Mostly Cloudy,0,2012-11-03 02:55:00
10:15 PM,33.8,26.6,75,30.15,10.0,Calm,Calm,-,N/A,,Overcast,0,2012-11-03 03:15:00
10:35 PM,33.8,28.4,81,30.16,10.0,Calm,Calm,-,N/A,,Overcast,0,2012-11-03 03:35:00
10:55 PM,33.8,28.4,81,30.16,10.0,Calm,Calm,-,N/A,,Overcast,0,2012-11-03 03:55:00
11:15 PM,33.8,28.4,81,30.16,10.0,Calm,Calm,-,N/A,,Overcast,0,2012-11-03 04:15:00
11:35 PM,33.8,28.4,81,30.16,10.0,Calm,Calm,-,N/A,,Overcast,0,2012-11-03 04:35:00